KLM1128 EDDM-EHAM

Flight info

Callsign KLM1128
Flight time 1h 7m
Altitude 34000
Route GIVMI6S GIVMI Y101 IBAGA DCT MASEK DCT MAPOX DCT NORKU
Aircraft B738/M-SDE2E3FGHIRWXY/LB1

Departure

Time 2026-05-05 17:40
Airport Munich Airport (EDDM)

Arrival

Time 2026-05-05 18:47
Airport Amsterdam Airport Schiphol (EHAM)
Time Latitude Longitude Altitude Speed Heading
2026-05-05 17:01 48.35722 11.79693 1466 ft 0 kts 82°
2026-05-05 17:24 48.35721 11.79689 1466 ft 3 kts 82°
2026-05-05 17:25 48.35717 11.79649 1456 ft 4 kts 79°
2026-05-05 17:25 48.35713 11.79623 1459 ft 4 kts 75°
2026-05-05 17:25 48.35701 11.79573 1457 ft 4 kts 54°
2026-05-05 17:25 48.35684 11.79553 1457 ft 3 kts 357°
2026-05-05 17:26 48.35681 11.79553 1458 ft 1 kts 353°
2026-05-05 17:31 48.35687 11.79552 1457 ft 4 kts 353°
2026-05-05 17:31 48.35744 11.79542 1458 ft 13 kts 353°
2026-05-05 17:31 48.35854 11.79522 1461 ft 10 kts 352°
2026-05-05 17:32 48.35922 11.79510 1462 ft 10 kts 354°
2026-05-05 17:32 48.35990 11.79500 1461 ft 10 kts 354°
2026-05-05 17:32 48.36033 11.79493 1463 ft 3 kts 354°
2026-05-05 17:32 48.36063 11.79487 1466 ft 8 kts 352°
2026-05-05 17:33 48.36079 11.79483 1462 ft 1 kts 352°
2026-05-05 17:33 48.36099 11.79479 1465 ft 8 kts 352°
2026-05-05 17:33 48.36183 11.79479 1463 ft 13 kts 26°
2026-05-05 17:33 48.36224 11.79593 1460 ft 13 kts 80°
2026-05-05 17:34 48.36233 11.79724 1467 ft 12 kts 84°
2026-05-05 17:34 48.36242 11.79851 1466 ft 12 kts 84°
2026-05-05 17:34 48.36250 11.79976 1462 ft 12 kts 84°
2026-05-05 17:34 48.36261 11.80097 1467 ft 12 kts 83°
2026-05-05 17:35 48.36271 11.80232 1467 ft 14 kts 83°
2026-05-05 17:35 48.36285 11.80400 1465 ft 18 kts 84°
2026-05-05 17:35 48.36301 11.80603 1467 ft 21 kts 83°
2026-05-05 17:35 48.36319 11.80837 1465 ft 24 kts 83°
2026-05-05 17:36 48.36339 11.81097 1461 ft 26 kts 83°
2026-05-05 17:36 48.36361 11.81374 1466 ft 27 kts 83°
2026-05-05 17:36 48.36381 11.81634 1462 ft 23 kts 83°
2026-05-05 17:36 48.36397 11.81864 1465 ft 19 kts 85°
2026-05-05 17:37 48.36396 11.81907 1465 ft 4 kts 95°
2026-05-05 17:37 48.36393 11.81952 1456 ft 9 kts 95°
2026-05-05 17:37 48.36450 11.82008 1462 ft 9 kts 355°
2026-05-05 17:37 48.36510 11.81998 1465 ft 9 kts 354°
2026-05-05 17:38 48.36591 11.81985 1461 ft 13 kts 354°
2026-05-05 17:38 48.36663 11.81928 1460 ft 12 kts 299°
2026-05-05 17:38 48.36669 11.81850 1465 ft 0 kts 263°
2026-05-05 17:39 48.36647 11.81552 1466 ft 72 kts 263°
2026-05-05 17:39 48.36552 11.80370 1472 ft 150 kts 263°
2026-05-05 17:39 48.36457 11.78670 2036 ft 173 kts 268°
2026-05-05 17:40 48.36445 11.76834 3092 ft 176 kts 275°
2026-05-05 17:40 48.36454 11.74931 3921 ft 195 kts 261°
2026-05-05 17:40 48.36174 11.72798 4258 ft 225 kts 261°
2026-05-05 17:40 48.35922 11.70423 4985 ft 230 kts 261°
2026-05-05 17:41 48.35853 11.68026 5869 ft 233 kts 282°
2026-05-05 17:41 48.36552 11.65701 6299 ft 259 kts 299°
2026-05-05 17:41 48.37531 11.63319 6753 ft 274 kts 300°
2026-05-05 17:41 48.38552 11.60881 6786 ft 277 kts 300°
2026-05-05 17:42 48.39571 11.58437 6797 ft 275 kts 300°
2026-05-05 17:42 48.40252 11.56790 6807 ft 274 kts 300°
2026-05-05 17:42 48.41245 11.54372 7003 ft 266 kts 299°
2026-05-05 17:42 48.42213 11.51999 7574 ft 274 kts 299°
2026-05-05 17:43 48.43214 11.49531 7811 ft 278 kts 299°
2026-05-05 17:43 48.44225 11.47039 7798 ft 278 kts 298°
2026-05-05 17:43 48.45290 11.44620 7801 ft 279 kts 310°
2026-05-05 17:43 48.46898 11.42947 7814 ft 285 kts 336°
2026-05-05 17:44 48.48831 11.42203 7817 ft 288 kts 347°
2026-05-05 17:44 48.50812 11.41679 7814 ft 290 kts 348°
2026-05-05 17:44 48.52810 11.41174 7964 ft 293 kts 348°
2026-05-05 17:44 48.54834 11.40653 8735 ft 296 kts 347°
2026-05-05 17:45 48.56871 11.40117 9647 ft 298 kts 347°
2026-05-05 17:45 48.58939 11.39561 10282 ft 310 kts 347°
2026-05-05 17:45 48.61149 11.38956 10477 ft 335 kts 347°
2026-05-05 17:45 48.63507 11.38309 10887 ft 351 kts 347°
2026-05-05 17:46 48.65932 11.37645 11595 ft 356 kts 347°
2026-05-05 17:46 48.68382 11.36974 12405 ft 359 kts 347°
2026-05-05 17:46 48.70769 11.35895 13148 ft 359 kts 329°
2026-05-05 17:46 48.72869 11.33866 13901 ft 359 kts 322°
2026-05-05 17:47 48.74941 11.31697 14566 ft 363 kts 322°
2026-05-05 17:47 48.77008 11.29540 15222 ft 368 kts 323°
2026-05-05 17:47 48.79138 11.27350 15875 ft 372 kts 323°
2026-05-05 17:47 48.81300 11.25149 16541 ft 376 kts 323°
2026-05-05 17:48 48.83525 11.22909 17203 ft 381 kts 326°
2026-05-05 17:48 48.85910 11.21066 17847 ft 389 kts 337°
2026-05-05 17:48 48.88474 11.19712 18438 ft 393 kts 340°
2026-05-05 17:48 48.91088 11.18433 19029 ft 396 kts 340°
2026-05-05 17:49 48.93691 11.17168 19590 ft 400 kts 340°
2026-05-05 17:49 48.96352 11.15856 20155 ft 403 kts 340°
2026-05-05 17:49 48.99027 11.14514 20698 ft 407 kts 340°
2026-05-05 17:49 49.01723 11.13146 21238 ft 410 kts 340°
2026-05-05 17:50 49.04440 11.11758 21766 ft 414 kts 340°
2026-05-05 17:50 49.07181 11.10354 22280 ft 417 kts 339°
2026-05-05 17:50 49.09837 11.08563 22785 ft 419 kts 328°
2026-05-05 17:50 49.12230 11.06034 23297 ft 419 kts 320°
2026-05-05 17:51 49.14520 11.03250 23740 ft 422 kts 319°
2026-05-05 17:51 49.16812 11.00416 24155 ft 425 kts 319°
2026-05-05 17:51 49.19124 10.97549 24563 ft 429 kts 319°
2026-05-05 17:51 49.21445 10.94682 24977 ft 431 kts 319°
2026-05-05 17:52 49.23796 10.91792 25386 ft 434 kts 319°
2026-05-05 17:52 49.26168 10.88888 25772 ft 437 kts 319°
2026-05-05 17:52 49.28554 10.85973 26147 ft 440 kts 319°
2026-05-05 17:52 49.30955 10.83042 26498 ft 443 kts 319°
2026-05-05 17:53 49.33377 10.80084 26858 ft 446 kts 320°
2026-05-05 17:53 49.35810 10.77109 27226 ft 449 kts 320°
2026-05-05 17:53 49.38259 10.74113 27569 ft 452 kts 320°
2026-05-05 17:53 49.40727 10.71087 27933 ft 454 kts 320°
2026-05-05 17:54 49.43198 10.68055 28276 ft 457 kts 320°
2026-05-05 17:54 49.45688 10.64995 28604 ft 460 kts 320°
2026-05-05 17:54 49.48193 10.61911 28910 ft 463 kts 320°
2026-05-05 17:54 49.50712 10.58806 29231 ft 465 kts 320°
2026-05-05 17:55 49.53242 10.55683 29552 ft 467 kts 320°
2026-05-05 17:55 49.55784 10.52540 29862 ft 470 kts 320°
2026-05-05 17:55 49.58301 10.49425 30166 ft 470 kts 320°
2026-05-05 17:55 49.60853 10.46263 30571 ft 469 kts 320°
2026-05-05 17:56 49.63387 10.43119 31001 ft 467 kts 319°
2026-05-05 17:56 49.65914 10.39979 31347 ft 466 kts 319°
2026-05-05 17:56 49.68447 10.36826 31655 ft 467 kts 319°
2026-05-05 17:56 49.70975 10.33675 31986 ft 467 kts 319°
2026-05-05 17:57 49.73499 10.30525 32345 ft 466 kts 319°
2026-05-05 17:57 49.76017 10.27378 32682 ft 466 kts 319°
2026-05-05 17:57 49.78536 10.24225 32983 ft 466 kts 319°
2026-05-05 17:57 49.81055 10.21069 33302 ft 466 kts 319°
2026-05-05 17:58 49.83570 10.17913 33641 ft 465 kts 319°
2026-05-05 17:58 49.86083 10.14754 33827 ft 467 kts 319°
2026-05-05 17:58 49.88619 10.11561 33806 ft 471 kts 319°
2026-05-05 17:59 49.93699 10.05154 33801 ft 469 kts 319°
2026-05-05 17:59 49.98722 9.98805 33807 ft 464 kts 319°
2026-05-05 18:00 50.03709 9.92480 33815 ft 465 kts 319°
2026-05-05 18:00 50.08725 9.86100 33803 ft 466 kts 319°
2026-05-05 18:01 50.13747 9.79696 33807 ft 467 kts 319°
2026-05-05 18:01 50.18779 9.73261 33805 ft 468 kts 319°
2026-05-05 18:02 50.23811 9.66809 33809 ft 468 kts 319°
2026-05-05 18:02 50.28849 9.60331 33807 ft 469 kts 319°
2026-05-05 18:03 50.33885 9.53835 33807 ft 469 kts 319°
2026-05-05 18:03 50.38886 9.47366 33807 ft 470 kts 319°
2026-05-05 18:04 50.43922 9.40834 33803 ft 470 kts 318°
2026-05-05 18:04 50.48950 9.34294 33806 ft 469 kts 318°
2026-05-05 18:05 50.53983 9.27729 33801 ft 469 kts 318°
2026-05-05 18:05 50.58992 9.21176 33796 ft 468 kts 318°
2026-05-05 18:06 50.64001 9.14605 33806 ft 468 kts 318°
2026-05-05 18:06 50.68992 9.08038 33795 ft 467 kts 317°
2026-05-05 18:07 50.73979 9.01458 33800 ft 466 kts 317°
2026-05-05 18:07 50.78951 8.94879 33804 ft 466 kts 317°
2026-05-05 18:08 50.83911 8.88296 33800 ft 465 kts 317°
2026-05-05 18:08 50.88610 8.82042 33793 ft 465 kts 317°
2026-05-05 18:09 50.93531 8.75475 33810 ft 465 kts 317°
2026-05-05 18:09 50.98502 8.68822 33807 ft 465 kts 317°
2026-05-05 18:10 51.03412 8.62232 33799 ft 464 kts 317°
2026-05-05 18:10 51.08346 8.55590 33809 ft 464 kts 317°
2026-05-05 18:11 51.13270 8.48943 33821 ft 464 kts 316°
2026-05-05 18:11 51.18193 8.42277 33816 ft 464 kts 316°
2026-05-05 18:12 51.23113 8.35597 33821 ft 464 kts 316°
2026-05-05 18:12 51.28024 8.28908 33821 ft 464 kts 316°
2026-05-05 18:13 51.32929 8.22209 33825 ft 464 kts 316°
2026-05-05 18:13 51.37839 8.15483 33828 ft 464 kts 316°
2026-05-05 18:14 51.42729 8.08766 33826 ft 463 kts 316°
2026-05-05 18:14 51.47592 8.02065 33828 ft 463 kts 316°
2026-05-05 18:15 51.52476 7.95315 33829 ft 463 kts 316°
2026-05-05 18:15 51.57355 7.88554 33830 ft 463 kts 315°
2026-05-05 18:16 51.62211 7.81805 33819 ft 458 kts 315°
2026-05-05 18:16 51.67011 7.75115 33836 ft 456 kts 315°
2026-05-05 18:17 51.71809 7.68405 33831 ft 453 kts 315°
2026-05-05 18:17 51.74151 7.65129 33812 ft 438 kts 315°
2026-05-05 18:17 51.76430 7.61937 33407 ft 434 kts 315°
2026-05-05 18:17 51.78725 7.58708 32711 ft 438 kts 315°
2026-05-05 18:18 51.81024 7.55468 32068 ft 440 kts 315°
2026-05-05 18:18 51.83337 7.52204 31434 ft 441 kts 315°
2026-05-05 18:18 51.85651 7.48936 30818 ft 442 kts 316°
2026-05-05 18:18 51.87970 7.45658 30209 ft 443 kts 316°
2026-05-05 18:19 51.90285 7.42382 29554 ft 443 kts 316°
2026-05-05 18:19 51.92604 7.39098 28862 ft 442 kts 316°
2026-05-05 18:19 51.94923 7.35807 28185 ft 442 kts 316°
2026-05-05 18:19 51.97231 7.32528 27520 ft 441 kts 316°
2026-05-05 18:20 51.99533 7.29252 26868 ft 440 kts 316°
2026-05-05 18:20 52.01050 7.27091 26448 ft 439 kts 316°
2026-05-05 18:20 52.04100 7.22740 25810 ft 432 kts 316°
2026-05-05 18:20 52.06350 7.19525 25335 ft 428 kts 316°
2026-05-05 18:21 52.08571 7.16346 24873 ft 423 kts 316°
2026-05-05 18:21 52.10740 7.13237 24424 ft 419 kts 316°
2026-05-05 18:21 52.12917 7.10112 23983 ft 416 kts 316°
2026-05-05 18:21 52.15098 7.06975 23542 ft 412 kts 316°
2026-05-05 18:22 52.17238 7.03895 23008 ft 409 kts 316°
2026-05-05 18:22 52.19372 7.00820 22325 ft 410 kts 316°
2026-05-05 18:22 52.21479 6.97770 21688 ft 409 kts 315°
2026-05-05 18:22 52.23408 6.94387 21037 ft 406 kts 305°
2026-05-05 18:23 52.24924 6.90538 20415 ft 403 kts 296°
2026-05-05 18:23 52.26023 6.86346 19795 ft 400 kts 287°
2026-05-05 18:23 52.26878 6.82047 19195 ft 398 kts 286°
2026-05-05 18:23 52.27717 6.77743 18604 ft 397 kts 286°
2026-05-05 18:24 52.28553 6.73451 17998 ft 396 kts 287°
2026-05-05 18:24 52.29390 6.69175 17341 ft 395 kts 287°
2026-05-05 18:24 52.30228 6.64917 16687 ft 393 kts 287°
2026-05-05 18:24 52.31066 6.60675 16046 ft 391 kts 288°
2026-05-05 18:25 52.31902 6.56450 15421 ft 390 kts 288°
2026-05-05 18:25 52.32185 6.55021 15209 ft 389 kts 288°
2026-05-05 18:25 52.33561 6.48052 14207 ft 386 kts 288°
2026-05-05 18:25 52.34107 6.45285 13815 ft 385 kts 288°
2026-05-05 18:26 52.34926 6.41126 13168 ft 383 kts 288°
2026-05-05 18:26 52.35739 6.36987 12518 ft 381 kts 288°
2026-05-05 18:26 52.36546 6.32870 11873 ft 379 kts 288°
2026-05-05 18:26 52.37347 6.28777 11255 ft 376 kts 288°
2026-05-05 18:27 52.38141 6.24709 10641 ft 374 kts 287°
2026-05-05 18:27 52.38929 6.20660 10145 ft 369 kts 287°
2026-05-05 18:27 52.39692 6.16735 9986 ft 354 kts 287°
2026-05-05 18:27 52.40423 6.12963 9901 ft 339 kts 287°
2026-05-05 18:28 52.41780 6.05949 9877 ft 308 kts 287°
2026-05-05 18:28 52.42409 6.02684 9874 ft 293 kts 287°
2026-05-05 18:28 52.43016 5.99533 9888 ft 288 kts 287°
2026-05-05 18:29 52.43618 5.96396 9899 ft 289 kts 287°
2026-05-05 18:29 52.44223 5.93242 9912 ft 290 kts 287°
2026-05-05 18:29 52.44827 5.90088 9912 ft 290 kts 287°
2026-05-05 18:29 52.45423 5.86972 9912 ft 290 kts 287°
2026-05-05 18:30 52.46026 5.83812 9910 ft 290 kts 287°
2026-05-05 18:30 52.46628 5.80652 9910 ft 290 kts 287°
2026-05-05 18:30 52.47231 5.77487 9912 ft 290 kts 287°
2026-05-05 18:30 52.47838 5.74290 9359 ft 300 kts 287°
2026-05-05 18:31 52.48457 5.71029 8719 ft 299 kts 287°
2026-05-05 18:31 52.49073 5.67775 8087 ft 298 kts 287°
2026-05-05 18:31 52.49687 5.64528 7457 ft 297 kts 287°
2026-05-05 18:31 52.50293 5.61313 7091 ft 288 kts 287°
2026-05-05 18:32 52.50735 5.58209 6939 ft 275 kts 271°
2026-05-05 18:32 52.50427 5.55154 6910 ft 272 kts 248°
2026-05-05 18:32 52.49526 5.52406 6929 ft 275 kts 239°
2026-05-05 18:32 52.48530 5.49712 6910 ft 278 kts 239°
2026-05-05 18:33 52.47517 5.47006 6915 ft 277 kts 239°
2026-05-05 18:33 52.46513 5.44319 6914 ft 277 kts 239°
2026-05-05 18:33 52.45512 5.41630 6907 ft 276 kts 239°
2026-05-05 18:33 52.44512 5.38938 6912 ft 277 kts 239°
2026-05-05 18:34 52.43510 5.36235 6907 ft 277 kts 239°
2026-05-05 18:34 52.42515 5.33549 6654 ft 285 kts 239°
2026-05-05 18:34 52.41453 5.30684 6133 ft 293 kts 239°
2026-05-05 18:34 52.40386 5.27806 5584 ft 298 kts 240°
2026-05-05 18:35 52.39304 5.24886 5055 ft 302 kts 240°
2026-05-05 18:35 52.38221 5.21972 4597 ft 304 kts 240°
2026-05-05 18:35 52.37139 5.19058 4448 ft 294 kts 240°
2026-05-05 18:35 52.36094 5.16249 4397 ft 282 kts 240°
2026-05-05 18:36 52.35079 5.13527 4402 ft 280 kts 240°
2026-05-05 18:36 52.34067 5.10815 4431 ft 277 kts 240°
2026-05-05 18:36 52.33070 5.08161 4410 ft 273 kts 239°
2026-05-05 18:36 52.32025 5.05567 4407 ft 274 kts 238°
2026-05-05 18:37 52.30965 5.02981 4397 ft 274 kts 238°
2026-05-05 18:37 52.29899 5.00389 4402 ft 276 kts 237°
2026-05-05 18:37 52.28824 4.97775 4412 ft 279 kts 237°
2026-05-05 18:37 52.27735 4.95137 4411 ft 281 kts 237°
2026-05-05 18:38 52.26640 4.92491 4411 ft 280 kts 237°
2026-05-05 18:38 52.25552 4.89866 4410 ft 278 kts 237°
2026-05-05 18:38 52.24471 4.87256 4402 ft 276 kts 237°
2026-05-05 18:38 52.23396 4.84668 4320 ft 280 kts 237°
2026-05-05 18:39 52.22290 4.81990 3916 ft 287 kts 237°
2026-05-05 18:39 52.21166 4.79247 3488 ft 293 kts 237°
2026-05-05 18:39 52.20040 4.76475 3110 ft 293 kts 237°
2026-05-05 18:39 52.18931 4.73728 2730 ft 293 kts 237°
2026-05-05 18:40 52.17808 4.70954 2350 ft 293 kts 238°
2026-05-05 18:40 52.16678 4.68181 2035 ft 292 kts 238°
2026-05-05 18:40 52.15569 4.65491 1980 ft 279 kts 237°
2026-05-05 18:40 52.14494 4.62907 1999 ft 274 kts 238°
2026-05-05 18:41 52.13505 4.60289 1973 ft 270 kts 250°
2026-05-05 18:41 52.13108 4.57363 1986 ft 263 kts 272°
2026-05-05 18:41 52.13411 4.54499 1967 ft 251 kts 296°
2026-05-05 18:41 52.14312 4.52232 1961 ft 237 kts 320°
2026-05-05 18:42 52.15630 4.50665 1974 ft 235 kts 335°
2026-05-05 18:42 52.17161 4.49913 1997 ft 228 kts 359°
2026-05-05 18:42 52.18666 4.50299 1971 ft 214 kts 24°
2026-05-05 18:42 52.19915 4.51490 1964 ft 205 kts 40°
2026-05-05 18:43 52.20876 4.53178 1998 ft 204 kts 49°
2026-05-05 18:43 52.21748 4.55037 1995 ft 208 kts 54°
2026-05-05 18:43 52.22525 4.56987 1974 ft 198 kts 56°
2026-05-05 18:43 52.23213 4.58801 1973 ft 179 kts 56°
2026-05-05 18:44 52.23842 4.60457 1908 ft 169 kts 56°
2026-05-05 18:44 52.24466 4.62091 1713 ft 169 kts 56°
2026-05-05 18:44 52.25086 4.63716 1480 ft 168 kts 56°
2026-05-05 18:44 52.25691 4.65300 1247 ft 164 kts 55°
2026-05-05 18:45 52.26286 4.66858 1044 ft 159 kts 55°
2026-05-05 18:45 52.26845 4.68323 836 ft 142 kts 54°
2026-05-05 18:45 52.27346 4.69633 592 ft 130 kts 54°
2026-05-05 18:45 52.27802 4.70848 467 ft 117 kts 56°
2026-05-05 18:46 52.28237 4.72036 268 ft 124 kts 56°
2026-05-05 18:46 52.28721 4.73212 124 ft 126 kts 57°
2026-05-05 18:46 52.29182 4.74428 0 ft 118 kts 58°
2026-05-05 18:46 52.29550 4.75359 -3 ft 76 kts 57°
2026-05-05 18:47 52.29770 4.75938 -4 ft 53 kts 59°
2026-05-05 18:47 52.29952 4.76422 -4 ft 42 kts 57°
2026-05-05 18:47 52.30152 4.76533 -2 ft 29 kts 20°
2026-05-05 18:47 52.30285 4.76755 -2 ft 27 kts 59°
2026-05-05 18:48 52.30359 4.76941 -2 ft 16 kts 57°
2026-05-05 18:48 52.30443 4.77026 -2 ft 15 kts 347°
2026-05-05 18:48 52.30531 4.76934 -2 ft 15 kts 324°
2026-05-05 18:48 52.30607 4.76828 -2 ft 14 kts 304°
2026-05-05 18:49 52.30670 4.76737 -2 ft 0 kts 326°
2026-05-05 18:49 52.30681 4.76720 -2 ft 4 kts 307°
2026-05-05 18:50 52.30683 4.76667 -2 ft 5 kts 253°
2026-05-05 18:50 52.30672 4.76615 -2 ft 3 kts 249°
2026-05-05 18:50 52.30667 4.76595 -2 ft 0 kts 248°
2026-05-05 18:50 52.30666 4.76592 -2 ft 0 kts 248°